Location: *
(41.0169°S, 178.6672°E)
Time: 04:30:01
(UTC+00:00)

Daily predictions for brighter satellites

Satellite Brightness Start Highest point End
(mag) Time Altitude Azimuth Time Altitude Azimuth Time Altitude Azimuth
CZ-2C R/B 4.1 06:48:22 10° N 06:53:08 77° WNW 06:58:02 10° SSW
NOAA 12 4.1 06:49:10 10° SSE 06:54:30 78° ENE 06:59:45 10° N
H-2A R/B 3.9 06:51:29 10° S 06:55:11 49° WSW 06:58:52 10° NNW
YAOGAN 6 3.0 06:51:58 10° SSE 06:55:37 45° E 06:59:12 10° N
Cosmos 1242 Rocket 2.9 06:55:34 10° NNE 06:59:00 43° E 07:02:26 10° SSE
YAOGAN 1 3.0 06:59:36 10° SSE 07:03:46 40° E 07:07:53 10° N
CZ-4 R/B 4.5 07:02:22 10° SSE 07:06:35 63° E 07:10:42 10° N
BREEZE-M DEB (TANK) 4.2 07:05:49 10° W 07:09:04 31° SSW 07:11:26 10° SE
Cosmos 1953 Rocket 4.2 07:05:17 10° NNW 07:09:36 63° W 07:14:01 10° S
Cosmos 1328 3.7 07:06:45 10° N 07:10:41 72° E 07:14:41 10° SSE
Cosmos 1900 4.5 07:05:59 10° SSW 07:11:09 88° WNW 07:16:18 10° NNE
USA 215 4.2 07:08:25 10° ESE 07:13:31 23° ENE 07:18:33 10° N
Cosmos 1842 Rocket 4.1 07:09:34 10° S 07:13:45 40° ESE 07:17:52 10° NNE
CSL-04 Rocket 3.9 07:08:41 10° SSE 07:14:07 51° E 07:19:31 10° N
Meteor 2-10 Rocket 3.8 07:13:13 10° S 07:19:08 70° E 07:24:51 10° NNE
Cosmos 2285 Rocket 4.0 07:13:52 10° N 07:20:07 63° ENE 07:26:24 10° SSE
Cosmos 968 Rocket 3.4 07:19:11 10° N 07:24:20 69° ENE 07:29:31 10° SSE
Cosmos 1174 4.2 07:21:37 10° NNW 07:25:35 81° WSW 07:30:40 10° SSE
Cosmos 1271 Rocket 4.4 07:22:45 10° NW 07:26:32 39° WSW 07:30:18 10° S
Cosmos 2221 2.9 07:27:44 10° S 07:31:59 44° ESE 07:35:33 14° NNE
Cosmos 1354 Rocket 4.0 07:28:17 10° N 07:33:34 74° ENE 07:38:56 10° SSE
H-2A R/B 3.8 07:33:32 10° ESE 07:35:10 12° E 07:35:10 12° E
Meteor 1-11 4.3 07:30:51 10° N 07:36:42 80° E 07:42:32 10° SSE
ADEOS Rocket 4.0 07:35:01 10° N 07:40:58 47° W 07:46:32 10° SSW
Cosmos 1076 Rocket 3.9 07:39:31 10° NNE 07:43:28 40° E 07:47:31 10° SSE
PSLV R/B 2.5 07:44:11 10° W 07:46:52 87° NNW 07:47:37 42° E
Envisat 4.4 07:42:38 10° S 07:47:28 42° WSW 07:52:16 10° NW
BREEZE-M R/B 3.0 07:46:27 10° NW 07:50:23 52° NE 07:55:50 10° ESE
GPS 2-04 Rocket1 4.4 07:49:45 10° NNW 07:51:08 15° N 07:51:08 15° N
HJ-1C 3.5 07:48:55 10° SSE 07:52:20 53° E 07:54:33 19° N
Cosmos 1340 Rocket 3.8 07:51:33 10° SSW 07:55:26 46° W 07:59:15 10° NNW
DELTA 2 R/B (1) 3.7 07:50:11 10° WNW 07:55:43 58° NNE 07:59:09 23° E
Meteor 2-20 4.4 07:50:18 10° S 07:56:28 66° E 08:01:21 16° NNE
Cosmos 1459 Rocket 4.3 07:50:57 10° NNE 07:57:04 49° E 08:03:13 10° SSE
Cosmos 1939 Rocket 2.8 07:54:04 10° S 07:58:02 87° W 08:01:56 10° NNW
CZ-2C R/B 2.5 07:54:30 17° NNE 07:58:32 71° ESE 08:03:46 10° S
DMSP B5D2-2 4.3 07:54:14 10° N 07:59:26 70° WNW 08:04:44 10° SSW
Cosmos 1777 Rocket 4.5 07:57:20 17° NNE 08:00:52 38° ENE 08:05:44 10° SE
Cosmos 1455 4.3 07:58:02 10° SSW 08:01:25 28° W 08:04:46 10° NNW
ISS -3.9 07:59:31 10° NW 08:02:53 76° NE 08:04:25 30° ESE
CZ-4C R/B 3.0 07:58:29 10° NNW 08:06:27 56° ENE 08:13:32 10° SE
Cosmos 2151 4.1 08:13:33 28° ESE 08:13:33 28° ESE 08:16:33 10° SSE
Cosmos 2058 2.8 08:13:45 34° NNE 08:15:25 66° E 08:19:36 10° SSE
Cosmos 1980 Rocket 4.4 08:15:11 10° SSE 08:16:50 11° SE 08:18:29 10° ESE
Cosmos 2173 Rocket 3.8 08:15:53 10° N 08:21:53 77° E 08:28:04 10° S
Cosmos 1833 Rocket 4.2 08:25:28 20° ESE 08:25:28 20° ESE 08:27:49 10° SE
Cosmos 1802 Rocket 4.0 08:19:04 20° N 08:23:27 65° E 08:29:39 10° SSE
CZ-4 R/B 4.3 08:21:02 10° SSW 08:23:45 18° WSW 08:26:28 10° WNW
Cosmos 1869 3.2 08:19:47 10° S 08:23:51 73° E 08:24:26 61° NE
Aureole 2 Rocket 3.5 08:22:58 10° SW 08:25:29 29° WNW 08:25:42 28° WNW
Ariane Rocket 3.3 08:25:02 10° S 08:30:08 66° WSW 08:35:11 10° NNW
MTI 4.4 08:32:36 52° WNW 08:32:42 52° W 08:35:54 10° SSW
EO 1 Del DPAF 3.6 08:37:06 52° SE 08:37:06 52° SE 08:40:23 10° S
ATLAS CENTAUR R/B 3.9 08:26:46 10° NW 08:41:42 73° SW 08:46:58 10° SE
Cosmos 1725 Rocket 4.0 08:40:27 44° NNE 08:42:15 60° E 08:48:31 10° SSE
USA 186 2.4 08:39:03 10° S 08:42:10 58° SW 08:42:10 58° SW
FREGAT/IRIS 4.3 08:40:31 10° S 08:42:48 32° SW 08:42:48 32° SW
USA 229 DEB 3.6 08:37:52 10° SW 08:44:46 87° WNW 08:46:54 47° NNE
USA 229 3.6 08:37:53 10° SW 08:44:50 89° WNW 08:46:58 47° NNE
EXPRESS MD2 4.1 08:41:49 10° WSW 08:45:09 49° NW 08:45:28 48° NNW
Cosmos 2100 Rocket 4.3 08:39:11 10° NNW 08:45:18 66° W 08:51:36 10° S
MOS 1 4.3 08:39:46 10° SSE 08:45:35 82° WSW 08:49:54 18° NNW
Cosmos 2082 Rocket 4.0 08:52:04 16° SE 08:52:04 16° SE 08:53:30 10° SE
NOSS 3-1 (A) 3.4 08:44:35 10° SSW 08:50:57 62° SE 08:51:52 54° E
Cosmos 1356 Rocket 3.5 08:48:57 10° SSW 08:52:54 73° SW 08:52:54 73° SW
Cosmos 1151 Rocket 4.1 08:52:01 10° S 08:54:58 35° SSE 08:54:58 35° SSE
Cosmos 1766 Rocket 3.7 08:57:13 73° S 08:57:13 73° S 09:01:20 10° S
USA 215 3.2 08:50:22 10° SE 08:57:00 90° SSW 09:03:36 10° NW
COSMOS 2406 3.3 08:52:12 10° NNW 08:57:53 77° WSW 09:03:39 10° SSE
SJ-6B 3.2 08:53:53 10° S 08:58:02 66° WSW 08:58:02 66° WSW
Cosmos 1892 3.8 08:59:22 40° S 08:59:22 40° S 09:01:57 10° S
SPOT 3 Rocket 3.4 08:53:23 10° SSE 08:58:37 86° ENE 08:59:11 72° N
Okean 3 Rocket 3.9 08:58:23 59° WNW 08:58:53 64° W 09:03:20 10° S
Mayak 0.8 09:04:43 20° SSE 09:04:43 20° SSE 09:06:34 10° SSE
Cosmos 1328 Rocket 4.3 09:00:27 10° S 09:03:39 45° SSE 09:03:39 45° SSE
Cosmos 2016 Rocket 4.2 09:02:48 29° NNW 09:06:18 71° W 09:12:44 10° S
NOSS 3-1 (C) 3.3 09:00:58 10° SW 09:07:11 67° WNW 09:07:50 62° NNW
ARGOS 3.0 09:01:49 10° SSE 09:07:18 85° ENE 09:07:31 82° NNE
Cosmos 1408 Rocket 4.5 09:12:11 43° SSE 09:12:11 43° SSE 09:15:16 10° S
Cosmos 1697 Rocket 3.2 09:05:21 10° SSW 09:10:34 45° SE 09:10:34 45° SE
Cosmos 2346 Rocket 4.3 09:05:13 10° S 09:11:26 89° W 09:12:17 69° N
Cosmos 1867 4.3 09:07:01 10° SW 09:12:08 43° WNW 09:12:43 42° NW
Cosmos 1816 Rocket 4.3 09:07:00 10° S 09:13:15 87° E 09:13:52 74° NNE
Cosmos 2369 4.0 09:09:37 10° SSW 09:14:56 53° SE 09:14:56 53° SE
MOS 1 Rocket 4.0 09:15:02 46° WNW 09:15:24 47° W 09:20:12 10° SSW
H-2A R/B 2.1 09:10:36 10° S 09:15:36 72° WSW 09:15:47 71° W
Cosmos 1680 Rocket 4.2 09:21:49 10° S 09:26:02 47° SSE 09:26:02 47° SSE
USA 267 3.7 09:29:02 47° ESE 09:30:14 52° SSE 09:36:37 10° SW
NOSS 2-3 (C) 4.4 09:29:00 10° SW 09:35:17 76° SSW 09:35:17 76° SSW
Lacrosse 4 Rocket 3.4 09:34:07 10° SSW 09:36:29 25° S 09:36:29 25° S
ISS -0.4 09:37:13 10° WSW 09:37:25 11° WSW 09:37:25 11° WSW
Resurs 01 Rocket 3.2 09:38:18 10° S 09:40:48 32° S 09:40:48 32° S
Cosmos 2322 Rocket 4.3 09:42:38 10° SSE 09:45:50 15° SE 09:45:50 15° SE
Cosmos 2278 4.2 09:40:48 10° SSW 09:45:21 55° S 09:45:21 55° S
Tsikada Rocket 4.4 09:40:51 10° SSW 09:46:55 54° W 09:47:20 53° WNW
CZ-2C R/B 3.8 09:48:49 10° S 09:53:33 50° WSW 09:53:33 50° WSW
CZ-4C R/B 4.1 09:48:01 10° WNW 09:55:21 39° SW 10:01:48 10° SSE
Cosmos 1980 Rocket 3.1 09:56:23 10° SSW 10:00:21 44° S 10:00:21 44° S
Cosmos 1833 Rocket 3.6 10:07:04 45° SW 10:07:04 45° SW 10:12:20 10° SSE
SJ 16-02 4.1 10:21:35 14° SSE 10:21:35 14° SSE 10:22:17 10° SSE
Cosmos 2082 Rocket 3.5 10:33:51 36° SSW 10:33:51 36° SSW 10:37:59 10° S
Mayak 1.7 10:41:18 14° SW 10:41:18 14° SW 10:42:10 10° SW
Terra 4.4 10:37:11 10° SSE 10:38:03 15° SSE 10:38:03 15° SSE
COSMOS 2455 4.5 10:39:10 10° S 10:43:18 27° SSE 10:43:18 27° SSE
SL-16 R/B 3.8 10:54:58 10° SSW 10:58:00 31° S 10:58:00 31° S
ATLAS 2AS CENTAUR R/B 3.8 11:16:53 10° SSW 11:21:54 37° SSE 11:21:54 37° SSE
Cosmos 2322 Rocket 4.0 11:25:05 10° SSW 11:27:39 28° SSW 11:27:39 28° SSW
Cosmos 2360 Rocket 4.0 11:34:46 10° SSW 11:37:26 27° S 11:37:26 27° S
